Preview of NWS' New Version of Forecast
This preview is not operational and should not be used for support decisions.

Regional Weather Roundup (RWR)

Issued by National Weather Service (NWS)

                            
000
ASUS43 KDMX 231406
RWRIA 

WEATHER ROUNDUP FOR IOWA
NATIONAL WEATHER SERVICE DES MOINES IA
800 AM CST SAT FEB 23 2019

NOTE: "FAIR" INDICATES FEW OR NO CLOUDS BELOW 12,000 FEET WITH NO
SIGNIFICANT WEATHER AND/OR OBSTRUCTIONS TO VISIBILITY.

* - THESE STATIONS ARE NOT NWS STATIONS...THUS NOT UNDER NWS
QUALITY CONTROL.  THEY ALSO DO NOT REPORT WEATHER SUCH 
AS PRECIPITATION OR FOG.  

IAZ001>003-012>014-020>022-031>034-043>046-231500-
   NORTHWEST IOWA
  
CITY           SKY/WX    TMP DP  RH WIND       PRES   REMARKS
CARROLL *      FOG       32  32 100 E6        29.86F VSB<1/4 WCI  26  
CHEROKEE *     FOG       30  30 100 CALM      29.89S VSB<1/4          
DENISON *      FOG       30  30 100 NE5       29.87F VSB 1/2 WCI  25  
LE MARS *      FOG       27  27 100 NE5       29.88F VSB<1/4 WCI  21  
ORANGE CITY *  FOG       28  28 100 E5        29.87F VSB 1/4 WCI  23  
SHELDON *      FOG       27  27 100 E7        29.87F VSB<1/4 WCI  19  
SIOUX CITY     CLOUDY    29  27  92 CALM      29.88F FOG              
SPENCER        FOG       30  28  92 NE3       29.89F VSB<1/4          
STORM LAKE *   FOG       30  30 100 CALM      29.87F VSB<1/4          
$$
 
IAZ055>058-069>071-079>083-090>094-231500-
   SOUTHWEST IOWA
  
CITY           SKY/WX    TMP DP  RH WIND       PRES   REMARKS
ATLANTIC *     CLOUDY    32  32 100 E7        29.85F FOG     WCI  26  
AUDUBON *      FOG       30  28  93 CALM      29.86F VSB 1/4          
CLARINDA *     CLOUDY    34  34 100 CALM      29.87S                  
COUNCIL BLFS * FOG       30  30 100 N7        29.84S VSB 1/2 WCI  23  
CRESTON *      CLOUDY    32  32 100 E9        29.85F FOG     WCI  24  
HARLAN  *      FOG       30  30 100 NE8       29.85F VSB 1   WCI  23  
LAMONI         LGT RAIN  34  33  96 NE6       29.84F FOG     WCI  29  
RED OAK *      CLOUDY    34  34 100 NE7       29.85F FOG     WCI  28  
SHENANDOAH *   CLOUDY    34  34 100 NE3       29.86R FOG              
$$
 
IAZ047>049-059>061-072>074-084-231500-
   CENTRAL IOWA
  
CITY           SKY/WX    TMP DP  RH WIND       PRES   REMARKS
AMES           CLOUDY    33  32  96 E6        29.89F FOG     WCI  28  
ANKENY *       CLOUDY    34  32  93 E6        29.89F FOG     WCI  29  
BOONE *        CLOUDY    32  32 100 E9        29.87F FOG     WCI  24  
CHARITON *     CLOUDY    34  34 100 MISG      29.87F FOG              
DES MOINES     LGT RAIN  33  33 100 E7        29.87F FOG     WCI  27  
GRINNELL*      CLOUDY    32  32 100 MISG      29.91S FOG              
KNOXVILLE *    LGT RAIN  34  34 100 E8        29.87F WCI  27          
MARSHALLTOWN   CLOUDY    32  32 100 E13       29.89F FOG     WCI  22  
NEWTON *       CLOUDY    32  32 100 E8        29.89F FOG     WCI  25  
PELLA *        LGT RAIN  33  33  99 E7        29.90F WCI  27          
PERRY *        CLOUDY    33  33 100 E8        29.88F FOG     WCI  26  
$$
 
IAZ004>006-015-016-023>025-035-036-231500-
   NORTH CENTRAL IOWA
  
CITY           SKY/WX    TMP DP  RH WIND       PRES   REMARKS
ALGONA *       FOG       32  32 100 SE7       29.89S VSB 1/4 WCI  26  
CLARION *      CLOUDY    32  32 100 E8        29.89F FOG     WCI  25  
ESTHERVILLE    FOG       29  29 100 SE3       29.89F VSB 1/4          
FORT DODGE *   FOG       32  31  96 E7        29.89F VSB 1   WCI  26  
MASON CITY     CLOUDY    31  30  96 SE13G20   29.92F FOG     WCI  21  
FOREST CITY *  FOG       32  32 100 SE9       29.92R VSB 1   WCI  24  
IOWA FALLS *   CLOUDY    33  32  98 E7        29.91F FOG     WCI  27  
$$

IAZ007>011-017>019-026>030-037>042-050>054-066-231500-
   NORTHEAST IOWA
  
CITY           SKY/WX    TMP DP  RH WIND       PRES   REMARKS
CEDAR RAPIDS   FRZ RAIN  32  32 100 E17       29.87F WCI  21          
CHARLES CITY * FOG       32  30  93 MISG      29.91F VSB 1            
CLINTON *      MIX PCPN  33  32  96 E14       29.98F FOG     WCI  23  
DECORAH *      CLOUDY    32  32 100 E12       29.91F FOG     WCI  23  
DUBUQUE        FRZ RAIN  32  30  92 E9        29.97F FOG     WCI  24  
OELWEIN *      CLOUDY    32  32 100 E16       29.91F FOG     WCI  21  
WATERLOO       CLOUDY    33  31  92 E13       29.91F FOG     WCI  24  
$$
 
IAZ064-065-067-068-078-231500-
   EAST CENTRAL IOWA
  
CITY           SKY/WX    TMP DP  RH WIND       PRES   REMARKS
DAVENPORT      RAIN      33  31  92 E10       29.96F FOG     WCI  25  
IOWA CITY      MIX PCPN  34  32  92 E9        29.92F FOG     WCI  27  
MT. PLEASANT * CLOUDY    34  34 100 E8        29.91F FOG     WCI  27  
MUSCATINE *    LGT RAIN  34  34 100 SE7       29.96F VSB 3/4 WCI  28  
QUAD CITIES    LGT RAIN  34  33  96 E10       29.95F FOG     WCI  26  
$$
 
IAZ062-063-075>077-085>089-095>099-231500-
   SOUTHEAST IOWA
  
CITY           SKY/WX    TMP DP  RH WIND       PRES   REMARKS
BURLINGTON     LGT RAIN  34  32  92 E8        29.92F FOG     WCI  27  
FAIRFIELD *    FOG       34  34 100 E12       29.88F VSB 3/4 WCI  25  
FORT MADISON * DRIZZLE   36  36 100 E10       29.92F WCI  28          
KEOKUK *       CLOUDY    36  36 100 SE10      29.91S FOG     WCI  28  
OSKALOOSA *    CLOUDY    33  33 100 E3        29.90R FOG              
OTTUMWA        LGT RAIN  34  34 100 SE6       29.88F FOG     WCI  29  
WASHINGTON *   FOG       34  34 100 E13       29.91F VSB 3/4 WCI  25  
$$

ABBREVIATIONS USED IN REMARKS
   TC - TEMPERATURES IN CELSIUS
  WCI - WIND CHILL INDEX
   HX - HEAT INDEX
  VSB - VISIBILITY  
$$